W4ZHA Weather Reports


time (UTC)temp
C
wind
direction
speed
KPH
gust
KPH
rain 1hr
cm
rain 24hr
cm
rain mn
cm
humidity
%
barometer
mb
20260906124457 23 225 0.0 0.0 0.00 0.00 0.00 74 1014.1
20260906123957 23 225 0.0 0.0 0.00 0.00 0.00 76 1014.4
20260906123451 23 225 0.0 0.0 0.00 0.00 0.00 77 1014.1
20260906122951 23 239 0.0 0.0 0.00 0.00 0.00 77 1014.1
20260906122445 23 217 0.0 0.0 0.00 0.00 0.00 77 1013.8
20260906121942 23 258 0.0 0.0 0.00 0.00 0.00 77 1013.8
20260906121438 22 139 0.0 0.0 0.00 0.00 0.00 76 1013.8
20260906120935 22 237 0.0 0.0 0.00 0.00 0.00 76 1013.8
20260906120429 22 257 0.0 0.0 0.00 0.00 0.00 76 1013.8
20260906115926 22 228 0.0 0.0 0.00 0.00 0.00 75 1013.8
20260906115421 22 229 0.0 0.0 0.00 0.00 0.00 75 1013.8
20260906114921 22 229 0.0 0.0 0.00 0.00 0.00 74 1013.8
20260906114415 22 258 0.0 0.0 0.00 0.00 0.00 74 1013.8
20260906113911 22 233 0.0 0.0 0.00 0.00 0.00 74 1013.8
20260906113410 22 269 0.0 0.0 0.00 0.00 0.00 74 1013.8
20260906112906 22 221 0.0 0.0 0.00 0.00 0.00 74 1013.4
20260906112401 22 220 0.0 0.0 0.00 0.00 0.00 73 1013.4
20260906111856 23 231 0.0 0.0 0.00 0.00 0.00 73 1013.4
20260906111355 23 251 0.0 0.0 0.00 0.00 0.00 73 1013.4
20260906110850 23 214 0.0 0.0 0.00 0.00 0.00 73 1013.0
20260906110346 23 259 0.0 0.0 0.00 0.00 0.00 73 1012.7
20260906105845 23 251 0.0 0.0 0.00 0.00 0.00 73 1012.7
20260906105341 23 239 0.0 0.0 0.00 0.00 0.00 73 1013.0
20260906104837 23 272 0.0 0.0 0.00 0.00 0.00 73 1012.7
20260906104335 23 199 0.0 0.0 0.00 0.00 0.00 72 1012.7
20260906103834 23 241 0.0 0.0 0.00 0.00 0.00 72 1012.7
20260906103332 23 256 0.0 0.0 0.00 0.00 0.00 72 1012.7
20260906102828 23 244 0.0 0.0 0.00 0.00 0.00 72 1012.7
20260906102327 23 223 0.0 0.0 0.00 0.00 0.00 72 1012.7
20260906101823 23 249 0.0 0.0 0.00 0.00 0.00 72 1012.7
20260906101318 23 231 0.0 0.0 0.00 0.00 0.00 72 1012.7
20260906100813 23 247 0.0 0.0 0.00 0.00 0.00 72 1012.7
20260906100312 23 208 0.0 0.0 0.00 0.00 0.00 72 1012.7
20260906095808 23 200 0.0 0.0 0.00 0.00 0.00 72 1012.7
20260906095306 23 218 0.0 0.0 0.00 0.00 0.00 71 1012.7
20260906094802 23 196 0.0 0.0 0.00 0.00 0.00 70 1013.0
20260906094257 23 251 0.0 0.0 0.00 0.00 0.00 70 1013.0
20260906093753 24 230 0.0 0.0 0.00 0.00 0.00 70 1012.7
20260906093249 24 237 0.0 0.0 0.00 0.00 0.00 70 1012.7
20260906092743 24 244 0.0 0.0 0.00 0.00 0.00 69 1013.0
20260906092238 24 229 0.0 0.0 0.00 0.00 0.00 69 1013.0
20260906091734 25 227 0.0 0.0 0.00 0.00 0.00 69 1013.0
20260906091230 25 229 0.0 0.0 0.00 0.00 0.00 67 1013.0
20260906090726 25 229 0.0 0.0 0.00 0.00 0.00 67 1013.0
20260906090225 25 207 0.0 0.0 0.00 0.00 0.00 67 1013.0
20260906085725 25 226 0.0 0.0 0.00 0.00 0.00 66 1013.0
20260906085224 25 203 0.0 0.0 0.00 0.00 0.00 66 1013.4
20260906084719 25 198 0.0 0.0 0.00 0.00 0.00 66 1013.4
20260906084213 25 84 0.0 0.0 0.00 0.00 0.00 66 1013.4
20260906083708 25 152 0.0 0.0 0.00 0.00 0.00 66 1013.4
20260906083204 25 231 0.0 0.0 0.00 0.00 0.00 68 1013.8
20260906082658 24 50 0.0 0.0 0.00 0.00 0.00 68 1013.8
20260906082154 24 79 0.0 0.0 0.00 0.00 0.00 68 1013.8
20260906081649 23 234 0.0 0.0 0.00 0.00 0.00 71 1014.1
20260906081144 23 59 0.0 0.0 0.00 0.00 0.00 71 1013.8
20260906080641 23 218 0.0 0.0 0.00 0.00 0.00 71 1013.8
20260906080136 23 247 0.0 0.0 0.00 0.00 0.00 71 1013.4
20260906075630 23 254 0.0 0.0 0.00 0.00 0.00 71 1013.8
20260906075125 23 237 0.0 0.0 0.00 0.00 0.00 70 1013.4
20260906074620 24 219 0.0 0.0 0.00 0.00 0.00 70 1012.7
20260906074119 24 236 0.0 0.0 0.00 0.00 0.00 69 1013.0
20260906073614 24 206 0.0 0.0 0.00 0.00 0.00 69 1012.7
20260906073110 24 222 0.0 0.0 0.00 0.00 0.00 69 1012.7
20260906072604 24 239 0.0 0.0 0.00 0.00 0.00 69 1012.7
20260906072101 23 251 0.0 0.0 0.00 0.00 0.00 69 1012.7
20260906071557 23 256 0.0 0.0 0.00 0.00 0.00 69 1012.7
20260906071051 23 282 0.0 0.0 0.00 0.00 0.00 70 1012.7
20260906070548 23 190 0.0 0.0 0.00 0.00 0.00 71 1013.0
20260906070043 23 247 0.0 0.0 0.00 0.00 0.00 71 1013.4
20260906065543 23 305 0.0 0.0 0.00 0.00 0.00 77 1013.8
20260906065038 23 237 0.0 0.0 0.00 0.00 0.00 88 1014.1
20260906064534 23 247 0.0 0.0 0.00 0.00 0.00 84 1013.4
20260906064029 23 282 0.0 0.0 0.00 0.00 0.00 89 1013.4
20260906063524 23 236 0.0 0.0 0.00 0.00 0.00 87 1013.4
20260906063020 23 221 0.0 0.0 0.00 0.00 0.00 87 1013.4
20260906062515 23 220 0.0 0.0 0.00 0.00 0.00 87 1013.4
20260906062009 23 243 0.0 0.0 0.00 0.00 0.00 85 1013.8
20260906061505 23 245 0.0 0.0 0.00 0.00 0.00 87 1013.8
20260906060959 23 238 0.0 0.0 0.00 0.00 0.00 85 1013.8
20260906060456 23 180 0.0 0.0 0.00 0.00 0.00 86 1013.0
20260906055953 23 279 0.0 0.0 0.00 0.00 0.00 87 1013.0
20260906055449 23 225 0.0 0.0 0.00 0.00 0.00 87 1013.0
20260906054944 23 277 0.0 0.0 0.00 0.00 0.00 87 1013.4
20260906054443 23 250 0.0 0.0 0.00 0.00 0.00 86 1013.0
20260906053939 23 222 0.0 0.0 0.00 0.00 0.00 85 1013.0
20260906053436 23 239 0.0 0.0 0.00 0.00 0.00 84 1013.4
20260906052931 23 210 0.0 0.0 0.00 0.00 0.00 85 1013.0
20260906052427 23 228 0.0 0.0 0.00 0.00 0.00 83 1013.0
20260906051923 23 269 0.0 0.0 0.00 0.00 0.00 84 1013.4
20260906051418 23 275 0.0 0.0 0.00 0.00 0.00 84 1013.4
20260906050914 23 207 0.0 0.0 0.00 0.00 0.00 81 1013.4
20260906050414 23 252 0.0 0.0 0.00 0.00 0.00 80 1013.0
20260906045913 23 234 0.0 0.0 0.00 0.00 0.00 79 1013.4
20260906045412 23 232 0.0 0.0 0.00 0.00 0.00 79 1013.0
20260906044908 23 232 0.0 0.0 0.00 0.00 0.00 78 1013.4
20260906044403 23 228 0.0 0.0 0.00 0.00 0.00 77 1013.8
20260906043859 23 235 0.0 0.0 0.00 0.00 0.00 77 1013.8
20260906043354 23 261 0.0 0.0 0.00 0.00 0.00 77 1014.1
20260906042850 23 248 0.0 0.0 0.00 0.00 0.00 77 1013.8
20260906042348 23 261 0.0 0.0 0.00 0.00 0.00 78 1013.8
20260906041844 23 279 0.0 0.0 0.00 0.00 0.00 78 1013.8
20260906041340 23 219 0.0 0.0 0.00 0.00 0.00 77 1013.4
20260906040840 23 237 0.0 0.0 0.00 0.00 0.00 76 1013.8
20260906040335 23 220 0.0 0.0 0.00 0.00 0.00 77 1013.8
20260906035830 23 281 0.0 0.0 0.00 0.51 0.51 77 1013.8
20260906035325 23 245 0.0 0.0 0.00 0.51 0.51 76 1013.4
20260906034821 23 237 0.0 0.0 0.00 0.51 0.51 76 1013.8
20260906034315 23 214 0.0 0.0 0.00 0.51 0.51 76 1013.8
20260906033811 23 226 0.0 0.0 0.00 0.51 0.51 75 1013.8
20260906033310 23 274 0.0 0.0 0.00 0.51 0.51 76 1013.8
20260906032807 23 210 0.0 0.0 0.00 0.51 0.51 76 1013.8
20260906032305 23 229 0.0 0.0 0.00 0.51 0.51 75 1013.8
20260906031757 23 237 0.0 0.0 0.00 0.51 0.51 75 1013.8
20260906031253 23 250 0.0 0.0 0.00 0.51 0.51 75 1013.8
20260906030752 23 224 0.0 0.0 0.00 0.51 0.51 74 1013.8
20260906030248 23 261 0.0 0.0 0.00 0.51 0.51 74 1014.1
20260906025747 23 195 0.0 0.0 0.00 0.51 0.51 75 1014.1
20260906025241 23 219 0.0 0.0 0.00 0.51 0.51 73 1013.8
20260906024741 23 213 0.0 0.0 0.00 0.51 0.51 73 1013.8
20260906024239 23 269 0.0 0.0 0.00 0.51 0.51 73 1013.4
20260906023735 23 238 0.0 0.0 0.00 0.51 0.51 74 1013.4
20260906023231 23 250 0.0 0.0 0.00 0.51 0.51 73 1013.4
20260906022726 23 221 0.0 0.0 0.00 0.51 0.51 72 1013.0
20260906022221 23 253 0.0 0.0 0.00 0.51 0.51 72 1013.0
20260906021717 23 219 0.0 0.0 0.00 0.51 0.51 72 1013.0
20260906021216 23 231 0.0 0.0 0.00 0.51 0.51 72 1012.7
20260906020711 23 239 0.0 0.0 0.00 0.51 0.51 72 1013.0
20260906020206 23 221 0.0 0.0 0.00 0.51 0.51 72 1013.0
20260906015700 23 229 0.0 0.0 0.00 0.51 0.51 72 1013.0
20260906015159 23 229 0.0 0.0 0.00 0.51 0.51 72 1013.0
20260906014659 23 234 0.0 0.0 0.00 0.51 0.51 72 1012.7
20260906014155 23 233 0.0 0.0 0.00 0.51 0.51 71 1013.0
20260906013651 23 260 0.0 0.0 0.00 0.51 0.51 71 1013.0
20260906013145 24 224 0.0 0.0 0.00 0.51 0.51 71 1013.0
20260906012640 24 224 0.0 0.0 0.00 0.51 0.51 71 1012.7
20260906012140 24 276 0.0 0.0 0.00 0.51 0.51 71 1012.7
20260906011636 24 266 0.0 0.0 0.00 0.51 0.51 71 1012.7
20260906011131 24 228 0.0 0.0 0.00 0.51 0.51 71 1012.7
20260906010626 24 228 0.0 0.0 0.00 0.51 0.51 71 1012.7
20260906010122 24 222 0.0 0.0 0.00 0.51 0.51 70 1012.7
20260906005621 24 286 0.0 0.0 0.00 0.51 0.51 71 1012.7
20260906005120 24 206 0.0 0.0 0.00 0.51 0.51 71 1012.3
20260906004614 24 264 0.0 0.0 0.00 0.51 0.51 71 1012.7
20260906004109 25 260 0.0 0.0 0.00 0.51 0.51 71 1012.7
20260906003604 25 212 0.0 0.0 0.00 0.51 0.51 71 1012.3
20260906003100 25 242 0.0 0.0 0.00 0.51 0.51 70 1012.3
20260906002555 25 265 0.0 0.0 0.00 0.51 0.51 69 1012.7
20260906002050 25 270 0.0 0.0 0.00 0.51 0.51 69 1012.3
20260906001545 25 244 0.0 0.0 0.00 0.51 0.51 69 1012.7
20260906001039 25 292 0.0 0.0 0.00 0.51 0.51 69 1012.3
20260906000535 25 225 0.0 0.0 0.00 0.51 0.51 69 1012.3
20260906000030 25 271 0.0 0.0 0.00 0.51 0.51 69 1012.7
20260905235524 25 260 0.0 0.0 0.00 0.51 0.51 69 1012.7
20260905235019 25 220 0.0 0.0 0.00 0.51 0.51 69 1012.7
20260905234515 25 245 0.0 0.0 0.00 0.51 0.51 69 1012.7
20260905234009 25 244 0.0 0.0 0.00 0.51 0.51 69 1012.3
20260905233504 26 237 0.0 0.0 0.00 0.51 0.51 69 1012.3
20260905233004 26 217 0.0 0.0 0.00 0.51 0.51 69 1012.3
20260905232459 26 254 0.0 0.0 0.00 0.51 0.51 69 1012.7
20260905231955 26 301 0.0 0.0 0.00 0.51 0.51 69 1012.7
20260905231450 27 271 0.0 0.0 0.00 0.51 0.51 66 1012.0
20260905230946 26 183 0.0 0.0 0.00 0.51 0.51 66 1012.3
20260905230445 26 264 0.0 0.0 0.00 0.51 0.51 67 1012.3
20260905225943 26 265 0.0 0.0 0.00 0.51 0.51 67 1012.0
20260905225439 26 283 0.0 0.0 0.00 0.51 0.51 67 1012.0
20260905224933 26 229 0.0 0.0 0.00 0.51 0.51 68 1011.6
20260905224429 26 161 0.0 0.0 0.00 0.51 0.51 68 1012.0
20260905223928 27 289 0.0 0.0 0.00 0.51 0.51 66 1012.0
20260905223427 27 241 0.0 0.0 0.00 0.51 0.51 67 1012.0
20260905222927 26 329 0.0 0.0 0.00 0.51 0.51 66 1012.3
20260905222426 26 221 0.0 0.0 0.00 0.51 0.51 67 1012.0
20260905221922 27 264 0.0 0.0 0.00 0.51 0.51 66 1012.7
20260905221419 26 198 0.0 0.0 0.00 0.51 0.51 67 1012.3
20260905220915 27 262 0.0 0.0 0.00 0.51 0.51 65 1012.3
20260905220410 27 225 0.0 0.0 0.00 0.51 0.51 64 1012.7
20260905215909 27 207 0.0 0.0 0.00 0.51 0.51 65 1012.3
20260905215405 27 156 0.0 0.0 0.00 0.51 0.51 65 1012.7
20260905214901 28 184 0.0 0.0 0.00 0.51 0.51 65 1012.7
20260905214356 29 290 0.0 0.0 0.00 0.51 0.51 59 1012.7
20260905213851 28 249 0.0 0.0 0.00 0.51 0.51 64 1013.0
20260905213347 28 173 0.0 0.0 0.00 0.51 0.51 67 1012.7
20260905212842 28 262 0.0 0.0 0.00 0.51 0.51 63 1012.7
20260905212342 27 285 0.0 0.0 0.00 0.51 0.51 62 1012.3
20260905211836 27 329 0.0 0.0 0.00 0.51 0.51 64 1012.7
20260905211332 26 233 0.0 0.0 0.00 0.51 0.51 66 1012.7
20260905210828 26 140 0.0 0.0 0.00 0.51 0.51 67 1013.0
20260905210328 25 155 0.0 0.0 0.00 0.51 0.51 68 1012.7
20260905205827 25 118 0.0 0.0 0.00 0.51 0.51 70 1013.4
20260905205321 25 216 0.0 0.0 0.00 0.51 0.51 75 1013.4
20260905204821 25 154 0.0 0.0 0.00 0.51 0.51 75 1013.0
20260905204317 25 273 0.0 0.0 0.00 0.51 0.51 72 1013.4
20260905203816 25 180 0.0 0.0 0.00 0.51 0.51 74 1013.4
20260905203312 25 212 0.0 0.0 0.00 0.51 0.51 72 1013.0
20260905202807 25 267 0.0 0.0 0.00 0.51 0.51 73 1013.4
20260905202306 25 28 0.0 0.0 0.18 0.51 0.51 72 1013.0
20260905201757 25 308 0.0 0.0 0.89 0.51 0.51 73 1012.7
20260905201253 24 80 0.0 0.0 2.34 0.48 0.48 72 1012.7
20260905200747 25 88 0.0 3.2 1.63 0.33 0.33 71 1013.0
20260905200243 26 121 0.0 16.1 0.18 0.10 0.10 67 1013.0
20260905195741 26 0 0.0 8.0 0.00 0.05 0.05 68 1013.0
20260905195236 27 147 0.0 8.0 0.36 0.05 0.05 67 1013.4
20260905194732 31 348 0.0 3.2 0.36 0.05 0.05 61 1013.4
20260905194231 37 264 0.0 0.0 0.00 0.00 0.00 45 1012.7
20260905193725 36 243 0.0 0.0 0.00 0.00 0.00 45 1012.7
20260905193220 37 278 0.0 3.2 0.00 0.00 0.00 45 1012.7
20260905192716 37 244 0.0 0.0 0.00 0.00 0.00 45 1012.7
20260905192213 37 228 0.0 0.0 0.00 0.00 0.00 45 1012.7
20260905191711 36 217 0.0 3.2 0.00 0.00 0.00 45 1013.0
20260905191209 35 303 0.0 8.0 0.00 0.00 0.00 46 1012.7
20260905190708 35 256 0.0 0.0 0.00 0.00 0.00 45 1012.7
20260905190207 35 280 0.0 0.0 0.00 0.00 0.00 45 1013.0
20260905185706 35 250 0.0 0.0 0.00 0.00 0.00 45 1013.4
20260905185201 34 289 0.0 20.9 0.00 0.00 0.00 46 1013.4
20260905184701 35 269 0.0 16.1 0.00 0.00 0.00 46 1013.0
20260905184200 36 243 0.0 3.2 0.00 0.00 0.00 45 1013.0
20260905183654 35 210 0.0 0.0 0.00 0.00 0.00 45 1013.0
20260905183149 36 265 0.0 0.0 0.00 0.00 0.00 45 1013.0
20260905182649 33 215 0.0 0.0 0.00 0.00 0.00 46 1013.4
20260905182149 33 209 0.0 0.0 0.00 0.00 0.00 47 1013.4
20260905181644 34 184 0.0 0.0 0.00 0.00 0.00 46 1013.4
20260905181143 33 332 0.0 0.0 0.00 0.00 0.00 46 1013.4
20260905180638 34 231 0.0 0.0 0.00 0.00 0.00 46 1013.8
20260905180133 35 283 0.0 0.0 0.00 0.00 0.00 45 1013.8
20260905175632 35 9 0.0 0.0 0.00 0.00 0.00 45 1013.8
20260905175128 35 192 0.0 0.0 0.00 0.00 0.00 46 1013.8
20260905174623 35 165 0.0 0.0 0.00 0.00 0.00 46 1013.8
20260905174118 35 244 0.0 0.0 0.00 0.00 0.00 46 1013.8
20260905173615 35 162 0.0 3.2 0.00 0.00 0.00 45 1013.8
20260905173110 35 147 0.0 0.0 0.00 0.00 0.00 45 1014.1
20260905172609 35 0 0.0 3.2 0.00 0.00 0.00 46 1014.1
20260905172104 35 143 0.0 3.2 0.00 0.00 0.00 45 1014.1
20260905171601 35 205 0.0 8.0 0.00 0.00 0.00 45 1014.1
20260905171056 34 216 0.0 0.0 0.00 0.00 0.00 46 1014.4
20260905170553 35 272 0.0 0.0 0.00 0.00 0.00 46 1014.1
20260905170048 35 118 0.0 3.2 0.00 0.00 0.00 46 1014.1
20260905165543 34 298 0.0 12.9 0.00 0.00 0.00 46 1014.4
20260905165037 34 199 0.0 0.0 0.00 0.00 0.00 49 1014.4
20260905164532 35 292 0.0 0.0 0.00 0.00 0.00 46 1014.4
20260905164027 34 328 0.0 0.0 0.00 0.00 0.00 56 1014.8
20260905163523 34 2 4.8 8.0 0.00 0.00 0.00 48 1014.8
20260905163019 33 157 0.0 0.0 0.00 0.00 0.00 57 1014.8
20260905162515 33 216 0.0 0.0 0.00 0.00 0.00 57 1014.8
20260905162009 34 178 0.0 0.0 0.00 0.00 0.00 56 1014.8
20260905161509 33 100 0.0 0.0 0.00 0.00 0.00 57 1014.4
20260905161006 33 106 0.0 0.0 0.00 0.00 0.00 58 1014.8
20260905160500 32 176 0.0 0.0 0.00 0.00 0.00 58 1014.8
20260905160000 32 255 0.0 0.0 0.00 0.00 0.00 56 1014.8
20260905155455 32 159 0.0 0.0 0.00 0.00 0.00 56 1014.8
20260905154953 32 116 0.0 0.0 0.00 0.00 0.00 57 1014.8
20260905154448 32 182 0.0 3.2 0.00 0.00 0.00 57 1015.1
20260905153944 31 191 0.0 0.0 0.00 0.00 0.00 58 1014.8
20260905153440 31 87 0.0 0.0 0.00 0.00 0.00 59 1015.1
20260905152939 31 101 0.0 0.0 0.00 0.00 0.00 58 1015.1
20260905152440 31 177 0.0 0.0 0.00 0.00 0.00 59 1015.1
20260905151940 31 158 0.0 0.0 0.00 0.00 0.00 59 1015.1
20260905151435 31 181 0.0 0.0 0.00 0.00 0.00 58 1015.5
20260905150930 31 349 0.0 0.0 0.00 0.00 0.00 59 1015.1
20260905150425 30 358 0.0 0.0 0.00 0.00 0.00 60 1015.1
20260905145921 30 291 0.0 0.0 0.00 0.00 0.00 61 1015.5
20260905145416 30 151 0.0 0.0 0.00 0.00 0.00 61 1015.5
20260905144915 30 171 0.0 0.0 0.00 0.00 0.00 61 1015.5
20260905144411 30 116 0.0 0.0 0.00 0.00 0.00 61 1015.5
20260905143909 30 240 0.0 0.0 0.00 0.00 0.00 62 1015.5
20260905143404 30 179 0.0 0.0 0.00 0.00 0.00 62 1015.5
20260905142903 30 174 0.0 0.0 0.00 0.00 0.00 63 1015.5
20260905142402 29 182 0.0 0.0 0.00 0.00 0.00 63 1015.5
20260905141858 29 159 0.0 0.0 0.00 0.00 0.00 63 1015.5
20260905141353 28 147 0.0 0.0 0.00 0.00 0.00 63 1015.5
20260905140850 28 205 0.0 0.0 0.00 0.00 0.00 63 1015.8
20260905140349 28 153 0.0 0.0 0.00 0.00 0.00 64 1015.5
20260905135848 28 149 0.0 0.0 0.00 0.00 0.00 64 1015.8
20260905135344 28 200 0.0 0.0 0.00 0.00 0.00 66 1015.8
20260905134839 27 191 0.0 0.0 0.00 0.00 0.00 63 1015.8
20260905134338 27 184 0.0 0.0 0.00 0.00 0.00 64 1015.8
20260905133833 27 210 0.0 0.0 0.00 0.00 0.00 64 1015.8
20260905133328 27 212 0.0 0.0 0.00 0.00 0.00 64 1015.8
20260905132827 26 194 0.0 0.0 0.00 0.00 0.00 66 1015.8
20260905132323 27 140 0.0 0.0 0.00 0.00 0.00 64 1015.8
20260905131817 27 225 0.0 0.0 0.00 0.00 0.00 64 1016.1
20260905131313 26 226 0.0 0.0 0.00 0.00 0.00 64 1016.1
20260905130808 26 237 0.0 0.0 0.00 0.00 0.00 66 1016.1
20260905130306 26 234 0.0 0.0 0.00 0.00 0.00 67 1016.1
20260905125802 25 234 0.0 0.0 0.00 0.00 0.00 67 1015.8
20260905125256 25 234 0.0 0.0 0.00 0.00 0.00 68 1016.1
20260905124753 25 234 0.0 0.0 0.00 0.00 0.00 68 1016.1